INMARSAT 5-F1

Last updated on Fri Sep 11 2026 00:02:57 GMT+0000 (Coordinated Universal Time)

1 39476U 13073A 26253.61576944 .00000008 00000+0 00000+0 0 9999 2 39476 0.0205 134.7312 0000306 42.6164 96.6166 1.00272481 46437
UTC large
Height (km)
Speed (km/s)
/
Latitude / Longitude
Inclination (degrees)
Orbital Period (minutes)
Azimuth
Elevation
Range (km)
Doppler Factor

Next 0 passes for location: London (51.5072 / 0.1276)

No passes found over London.
INMARSAT 5-F1